Жарма

Казахстан     48°46′58″N   80°52′40″E
темп.,
°C
ветер,
м/с
пор.,
м/с
влажн.,
%
обл.,
%
осадки,
мм/ч
давл.,
гПа
погр.,
м
25 февраля, чт
чт2500:00−5ююз71493100 0.4 1017852
03:00−5зюз111685100 0.4 10191042
06:00−11з91492100 1.3 1024822
09:00−16зюз91667100 0.1 1029758
12:00−17юз111673100 0.1 10311086
15:00−16юз121979100 0.0 10311749
18:00−17юз101788100 0.1 10321519
21:00−17юз101789100 0.3 10341673
26 февраля, пт
пт2600:00−19зюз112081100 0.4 10361409
03:00−22зюз81586100 0.0 1039767
06:00−26юз6138567 0.0 1043306
09:00−27юз4118729 0.0 1044273
12:00−23юз478347 0.0 1044336
15:00−21ююз578556 0.0 1043456
18:00−25ююз458957 0.0 104394
21:00−27ююз458978 0.0 104586
27 февраля, сб
сб2700:00−28ююз349473 0.0 104453
03:00−27ююз349833 0.0 104334
06:00−27ю339830 0.0 104224
09:00−24ю349856 0.0 104293
12:00−17ю379275 0.0 1040400
15:00−15ююз4788100 0.0 1039586
18:00−19ююв339591 0.0 103924
21:00−19ююв3490100 0.0 103964
28 февраля, вс
вс2800:00−19ююв3490100 0.0 104065
03:00−19ююв4592100 0.0 103977
06:00−20ююв448793 0.0 103964
09:00−18юв588056 0.0 1038144
12:00−15юв598378 0.0 1035202
15:00−15юв61088100 0.0 1032231
18:00−15юв6985100 0.0 1031158
21:00−15юв6986100 0.0 1030156
1 марта, пн
пн100:00−14юв6991100 0.0 1029150
03:00−15юв6893100 0.0 1028140
06:00−15юв6891100 0.0 1027159
09:00−13юв6890100 0.0 1027162
12:00−10юв4688100 0.1 1026177
15:00−7ююв4790100 0.3 1025312
18:00−6ю41288100 0.4 1024343
21:00−7ю4986100 0.3 1024220